Beaufort, NC

5:11 PM EST on December 05, 2019 (GMT -0500)
Smith

Weather History for KMRH - October, 2019

Change the Weather History Date:

Saturday, October 19, 2019

  Actual Average Record
Temperature  
Mean Temperature 59 °F -  
Max Temperature 71 °F 75 °F 83 °F (1985)
Min Temperature 48 °F 55 °F 37 °F (1967)
Degree Days  
Heating Degree Days 6    
Growing Degree Days 9 (Base 50)    
Moisture  
Dew Point 53 °F    
Average Humidity 75    
Maximum Humidity 93    
Minimum Humidity 51    
Precipitation  
Precipitation 0.01 in - - ()
Sea Level Pressure  
Sea Level Pressure 30.05 in    
Wind  
Wind Speed 4 mph (East)    
Max Wind Speed 10 mph    
Max Gust Speed -    
Visibility 10 miles    
Events Rain    
Averages and records for this station are not official NWS values.
T = Trace of Precipitation, MM = Missing Value Source: NWS Daily Summary

Daily Weather History Graph

Daily Weather History Graph

Search for Another Location

Airport or City:

Astronomy

Oct. 19, 2019 Rise Set
Actual Time 7:15 AM EDT 6:27 PM EDT
Civil Twilight 6:49 AM EDT 6:52 PM EDT
Nautical Twilight 6:20 AM EDT 7:22 PM EDT
Astronomical Twilight 5:51 AM EDT 7:51 PM EDT
Moon 10:44 PM EDT (10/19) 12:35 PM EDT (10/19)
Length of Visible Light 12h 02m
Length of Day
11h 11m
Waning Gibbous, 70% of the Moon is Illuminated
Oct 19
Waning Gibbous
Oct 21
Last Quarter
Oct 27
New
Nov 4
First Quarter
Nov 12
Full

Hourly Weather History & Observations

Time (EDT) Temp. Dew Point Humidity Pressure Visibility Wind Dir Wind Speed Gust Speed Precip Events Conditions
12:58 AM 50.0 °F 46.0 °F 86% 30.06 in 10.0 mi Calm Calm - N/A   Clear
1:58 AM 50.0 °F 45.0 °F 83% 30.06 in 10.0 mi ENE 3.5 mph - N/A   Clear
2:58 AM 50.0 °F 46.0 °F 86% 30.08 in 10.0 mi Calm Calm - N/A   Clear
3:58 AM 48.9 °F 45.0 °F 86% 30.07 in 10.0 mi Calm Calm - N/A   Clear
4:58 AM 48.0 °F 45.0 °F 89% 30.06 in 10.0 mi ENE 3.5 mph - N/A   Clear
5:58 AM 48.0 °F 43.0 °F 83% 30.08 in 10.0 mi Calm Calm - N/A   Clear
6:58 AM 48.9 °F 43.0 °F 80% 30.08 in 10.0 mi Calm Calm - N/A   Clear
7:58 AM 50.0 °F 46.0 °F 86% 30.10 in 10.0 mi Calm Calm - N/A   Clear
8:58 AM 57.0 °F 45.0 °F 64% 30.11 in 10.0 mi NNE 4.6 mph - N/A   Clear
9:58 AM 61.0 °F 48.0 °F 62% 30.12 in 10.0 mi NE 5.8 mph - N/A   Clear
10:58 AM 66.0 °F 48.9 °F 54% 30.13 in 10.0 mi NE 6.9 mph - N/A   Clear
11:58 AM 69.1 °F 50.0 °F 51% 30.12 in 10.0 mi ENE 8.1 mph - N/A   Clear
12:58 PM 69.1 °F 51.1 °F 53% 30.10 in 10.0 mi ESE 8.1 mph - N/A   Clear
1:58 PM 69.1 °F 52.0 °F 54% 30.08 in 10.0 mi ESE 8.1 mph - N/A   Clear
2:58 PM 68.0 °F 54.0 °F 61% 30.06 in 10.0 mi East 9.2 mph - N/A   Clear
3:58 PM 66.9 °F 55.9 °F 68% 30.05 in 10.0 mi East 9.2 mph - N/A   Clear
4:58 PM 66.0 °F 55.9 °F 70% 30.04 in 10.0 mi ENE 6.9 mph - N/A   Clear
5:58 PM 64.9 °F 57.0 °F 75% 30.03 in 10.0 mi ENE 6.9 mph - N/A   Mostly Cloudy
6:58 PM 64.0 °F 60.1 °F 87% 30.02 in 10.0 mi ENE 3.5 mph - 0.00 in Rain Light Rain
7:58 PM 66.0 °F 61.0 °F 84% 30.02 in 10.0 mi ESE 5.8 mph - 0.00 in   Mostly Cloudy
8:58 PM 68.0 °F 60.1 °F 76% 30.01 in 10.0 mi SE 5.8 mph - N/A   Mostly Cloudy
9:58 PM 70.0 °F 61.0 °F 73% 29.99 in 10.0 mi SE 10.4 mph - N/A   Overcast
10:58 PM 66.9 °F 64.9 °F 93% 29.98 in 5.0 mi SE 10.4 mph - 0.01 in Rain Light Rain
11:19 PM 68.0 °F 64.0 °F 87% 29.97 in 10.0 mi ESE 9.2 mph - 0.00 in   Overcast
11:58 PM 69.1 °F 64.9 °F 87% 29.95 in 10.0 mi SE 9.2 mph - 0.00 in   Overcast